Weather History for Leonardtown, MD

Change the Weather History Date:

Sunday, May 11, 2014

  Actual Average (KNHK) Record (KNHK)
Temperature  
Mean Temperature 68 °F -  
Max Temperature 77 °F 72 °F 87 °F (2001)
Min Temperature 60 °F 54 °F 43 °F (1977)
Cooling Degree Days 4    
Growing Degree Days 18 (Base 50)    
Moisture  
Dew Point 53 °F    
Average Humidity 61    
Maximum Humidity 88    
Minimum Humidity 34    
Precipitation  
Precipitation 0.00 in - - ()
Sea Level Pressure  
Sea Level Pressure 30.10 in    
Wind  
Wind Speed 4 mph (WNW)    
Max Wind Speed 7 mph    
Max Gust Speed -    
Visibility 10 miles    
Events      
Averages and records for this station are not official NWS values.
T = Trace of Precipitation, MM = Missing Value Source: NWS Daily Summary

Daily Weather History Graph

Daily Weather History Graph

Search for Another Location

Airport:

Trip Planner

Search our weather history database for the weather conditions in past years. The results will help you decide how hot, cold, wet, or windy it might be!

Date:

Astronomy

May. 11, 2014 Rise Set
Actual Time 5:58 AM EDT 8:06 PM EDT
Civil Twilight 5:29 AM EDT 8:36 PM EDT
Nautical Twilight 4:53 AM EDT 9:12 PM EDT
Astronomical Twilight 4:14 AM EDT 9:51 PM EDT
Moon 5:03 PM EDT (5/11) 3:59 AM EDT (5/11)
Length of Visible Light 15h 06m
Length of Day
14h 08m
Waxing Gibbous, 89% of the Moon is Illuminated
May 11
Waxing Gibbous
May 14
Full
May 21
Last Quarter
May 28
New
Jun 5
First Quarter

Hourly Weather History & Observations

Time (EDT) Temp. Dew Point Humidity Pressure Visibility Wind Dir Wind Speed Gust Speed Precip Events Conditions
12:02 AM 64.4 °F 59.0 °F 83% 30.01 in 10.0 mi SW 5.8 mph - N/A   Mostly Cloudy
12:22 AM 66.2 °F 59.0 °F 78% 30.00 in 10.0 mi WSW 6.9 mph - N/A   Overcast
1:02 AM 66.2 °F 59.0 °F 78% 30.00 in 10.0 mi WSW 4.6 mph - N/A   Mostly Cloudy
1:22 AM 66.2 °F 59.0 °F 78% 29.99 in 10.0 mi WSW 4.6 mph - N/A   Mostly Cloudy
1:42 AM 64.4 °F 59.0 °F 83% 29.99 in 10.0 mi WSW 5.8 mph - N/A   Mostly Cloudy
2:02 AM 64.4 °F 59.0 °F 83% 29.99 in 10.0 mi Calm Calm - N/A   Overcast
2:22 AM 64.4 °F 59.0 °F 83% 29.99 in 10.0 mi SW 5.8 mph - N/A   Overcast
3:02 AM 64.4 °F 59.0 °F 83% 30.00 in 10.0 mi West 4.6 mph - N/A   Scattered Clouds
3:22 AM 64.4 °F 59.0 °F 83% 30.01 in 10.0 mi SW 4.6 mph - N/A   Clear
3:42 AM 64.4 °F 59.0 °F 83% 30.01 in 10.0 mi West 4.6 mph - N/A   Scattered Clouds
4:02 AM 62.6 °F 59.0 °F 88% 30.02 in 10.0 mi WSW 3.5 mph - N/A   Clear
4:22 AM 62.6 °F 59.0 °F 88% 30.02 in 10.0 mi WSW 4.6 mph - N/A   Mostly Cloudy
4:42 AM 62.6 °F 57.2 °F 82% 30.03 in 10.0 mi West 4.6 mph - N/A   Scattered Clouds
5:02 AM 60.8 °F 57.2 °F 88% 30.04 in 10.0 mi WSW 4.6 mph - N/A   Scattered Clouds
5:22 AM 60.8 °F 57.2 °F 88% 30.04 in 10.0 mi West 3.5 mph - N/A   Clear
5:42 AM 60.8 °F 57.2 °F 88% 30.05 in 10.0 mi WSW 3.5 mph - N/A   Clear
6:02 AM 60.8 °F 57.2 °F 88% 30.06 in 10.0 mi West 3.5 mph - N/A   Clear
6:22 AM 60.8 °F 57.2 °F 88% 30.07 in 10.0 mi West 3.5 mph - N/A   Clear
6:42 AM 60.8 °F 57.2 °F 88% 30.08 in 10.0 mi Calm Calm - N/A   Clear
7:03 AM 62.6 °F 57.2 °F 82% 30.09 in 10.0 mi West 3.5 mph - N/A   Clear
7:23 AM 64.4 °F 57.2 °F 77% 30.10 in 10.0 mi Calm Calm - N/A   Clear
7:43 AM 64.4 °F 55.4 °F 73% 30.11 in 10.0 mi West 4.6 mph - N/A   Clear
8:03 AM 66.2 °F 55.4 °F 68% 30.11 in 10.0 mi West 4.6 mph - N/A   Clear
8:23 AM 68.0 °F 55.4 °F 64% 30.12 in 10.0 mi WNW 5.8 mph - N/A   Clear
8:43 AM 68.0 °F 53.6 °F 60% 30.12 in 10.0 mi NW 5.8 mph - N/A   Clear
9:03 AM 69.8 °F 53.6 °F 56% 30.13 in 10.0 mi NW 5.8 mph - N/A   Clear
9:23 AM 69.8 °F 53.6 °F 56% 30.13 in 10.0 mi NNW 5.8 mph - N/A   Clear
9:43 AM 69.8 °F 53.6 °F 56% 30.14 in 10.0 mi NNW 5.8 mph - N/A   Clear
10:03 AM 69.8 °F 53.6 °F 56% 30.14 in 10.0 mi NW 6.9 mph - N/A   Clear
10:23 AM 71.6 °F 51.8 °F 50% 30.15 in 10.0 mi NW 5.8 mph - N/A   Clear
10:43 AM 71.6 °F 51.8 °F 50% 30.15 in 10.0 mi NW 5.8 mph - N/A   Clear
11:03 AM 71.6 °F 51.8 °F 50% 30.15 in 10.0 mi North 4.6 mph - N/A   Clear
11:23 AM 71.6 °F 51.8 °F 50% 30.16 in 10.0 mi NNW 6.9 mph - N/A   Clear
11:43 AM 73.4 °F 50.0 °F 44% 30.16 in 10.0 mi NNW 3.5 mph - N/A   Clear
12:03 PM 71.6 °F 50.0 °F 46% 30.16 in 10.0 mi ENE 6.9 mph - N/A   Clear
12:23 PM 73.4 °F 46.4 °F 38% 30.16 in 10.0 mi ENE 5.8 mph - N/A   Clear
12:43 PM 73.4 °F 46.4 °F 38% 30.15 in 10.0 mi NE 4.6 mph - N/A   Clear
1:03 PM 73.4 °F 46.4 °F 38% 30.15 in 10.0 mi NE 4.6 mph - N/A   Clear
1:23 PM 73.4 °F 46.4 °F 38% 30.15 in 10.0 mi NE 3.5 mph - N/A   Clear
1:43 PM 73.4 °F 46.4 °F 38% 30.15 in 10.0 mi East 4.6 mph - N/A   Clear
2:03 PM 73.4 °F 46.4 °F 38% 30.14 in 10.0 mi NNW 3.5 mph - N/A   Clear
2:23 PM 75.2 °F 48.2 °F 38% 30.13 in 10.0 mi NNE 6.9 mph - N/A   Clear
3:03 PM 77.0 °F 50.0 °F 39% 30.13 in 10.0 mi SE 6.9 mph - N/A   Clear
3:23 PM 77.0 °F 46.4 °F 34% 30.12 in 10.0 mi Calm Calm - N/A   Clear
4:04 PM 77.0 °F 48.2 °F 36% 30.12 in 10.0 mi East 5.8 mph - N/A   Clear
4:24 PM 77.0 °F 48.2 °F 36% 30.12 in 10.0 mi East 4.6 mph - N/A   Clear
4:44 PM 77.0 °F 48.2 °F 36% 30.12 in 10.0 mi East 6.9 mph - N/A   Clear
5:04 PM 77.0 °F 48.2 °F 36% 30.11 in 10.0 mi East 3.5 mph - N/A   Clear
5:24 PM 75.2 °F 48.2 °F 38% 30.11 in 10.0 mi East 5.8 mph - N/A   Clear
5:44 PM 75.2 °F 48.2 °F 38% 30.11 in 10.0 mi Calm Calm - N/A   Clear
6:04 PM 75.2 °F 48.2 °F 38% 30.11 in 10.0 mi East 4.6 mph - N/A   Clear
6:24 PM 73.4 °F 50.0 °F 44% 30.10 in 10.0 mi Calm Calm - N/A   Clear
6:44 PM 73.4 °F 51.8 °F 47% 30.11 in 10.0 mi Calm Calm - N/A   Clear
7:04 PM 73.4 °F 50.0 °F 44% 30.11 in 10.0 mi NE 3.5 mph - N/A   Clear
7:24 PM 71.6 °F 51.8 °F 50% 30.11 in 10.0 mi Calm Calm - N/A   Clear
7:44 PM 69.8 °F 51.8 °F 53% 30.12 in 10.0 mi Calm Calm - N/A   Clear
8:04 PM 68.0 °F 51.8 °F 56% 30.12 in 10.0 mi Calm Calm - N/A   Clear
8:24 PM 68.0 °F 51.8 °F 56% 30.12 in 10.0 mi SSE 5.8 mph - N/A   Clear
8:44 PM 68.0 °F 51.8 °F 56% 30.12 in 10.0 mi SSE 4.6 mph - N/A   Clear
9:04 PM 68.0 °F 51.8 °F 56% 30.12 in 10.0 mi SSE 3.5 mph - N/A   Clear
9:24 PM 66.2 °F 53.6 °F 64% 30.13 in 10.0 mi SSE 3.5 mph - N/A   Clear
9:44 PM 66.2 °F 53.6 °F 64% 30.13 in 10.0 mi Calm Calm - N/A   Clear
10:04 PM 64.4 °F 53.6 °F 68% 30.14 in 10.0 mi Calm Calm - N/A   Clear
10:24 PM 64.4 °F 53.6 °F 68% 30.14 in 10.0 mi Calm Calm - N/A   Clear
10:44 PM 64.4 °F 53.6 °F 68% 30.14 in 10.0 mi Calm Calm - N/A   Clear
11:24 PM 62.6 °F 55.4 °F 77% 30.15 in 10.0 mi Calm Calm - N/A   Clear
11:44 PM 62.6 °F 55.4 °F 77% 30.15 in 10.0 mi Calm Calm - N/A   Clear